{"data":{"norad_id":47202,"intl_designator":"2020-089A","name":"LUCAS (JDRS-1)","alt_names":[],"object_type":"PAYLOAD","status":"ACTIVE","operator":null,"country":"JPN","launch_date":"2020-11-29","launch_site_code":"TANSC","launch_vehicle":null,"mission":null,"orbit_class":"UNKNOWN","rcs_meters":null,"size_class":null,"mass_kg":null,"dimensions":null,"purposes":["comms"],"wikipedia_slug":null,"has_3d_model":false,"image_url":null,"decayed_at":null,"tle_current":{"epoch":"2026-05-25T00:45:14.305248Z","epoch_age_seconds":66191,"freshness":"FRESH","line1":"1 47202U 20089A   26145.03141557 -.00000238  00000+0  00000+0 0  9990","line2":"2 47202   0.0122 297.8347 0002497 118.9776 287.9185  1.00272582 20181","mean_motion":1.00272582,"eccentricity":0.0002497,"inclination_deg":0.0122,"raan_deg":297.8347,"arg_perigee_deg":118.9776,"mean_anomaly_deg":287.9185,"bstar":0,"rev_number":2018,"period_min":1436.0854894511,"perigee_km":35775.843056858,"apogee_km":35796.90001242,"semimajor_km":42164.508534639,"source":"CELESTRAK","updated_at":"2026-05-25T13:38:14.097456Z"}}}